Regional Weather Roundup
Issued by NWS Cleveland, OH

Home | Current Version | Previous Version | Graphics & Text | Print | Product List | Glossary On
Versions: 1 2 3 4 5 6 7 8 9 10 11 12 13 14 15 16 17 18 19 20 21 22 23 24 25 26 27 28 29 30 31 32 33 34 35 36 37 38 39 40 41 42 43 44 45 46 47 48 49 50
000
ASUS41 KCLE 310300
RWRCLE
OHIO REGIONAL WEATHER ROUNDUP
NATIONAL WEATHER SERVICE WILMINGTON, OH
1100 PM EDT SUN AUG 30 2015

NOTE: "FAIR" INDICATES FEW OR NO CLOUDS BELOW 12,000 FEET WITH NO
SIGNIFICANT WEATHER AND/OR OBSTRUCTIONS TO VISIBILITY.

OHZ001>008-015>018-024>027-034-035-043-044-310400-
   NORTHWEST OHIO

CITY           SKY/WX    TMP DP  RH WIND       PRES   REMARKS
DEFIANCE       CLEAR     71  67  87 CALM      30.05S
FINDLAY        PTCLDY    71  67  87 S6        30.05S
TOLEDO EXPRESS CLEAR     69  68  96 CALM      30.04S
TOLEDO EXEC    PTCLDY    73  66  78 SW7       30.05S
LIMA           MOCLDY    71  65  81 S6        30.07S
$$

OHZ009>014-019>023-028>033-038-089-310400-
   NORTHEAST OHIO

CITY           SKY/WX    TMP DP  RH WIND       PRES   REMARKS
CLE-HOPKINS    PTCLDY    75  64  68 S7        30.07F
CLE-LAKEFRONT  CLEAR     77  65  66 SW10      30.03F
CUY CO. ARPT   MOCLDY    73  70  88 S6        30.06S
LORAIN-ELYRIA  CLOUDY    71  65  81 SW7       30.07S
ASHTABULA      CLEAR     68  67  96 CALM      30.07F
AKRON-CANTON   PTCLDY    74  66  76 SW8       30.10R THUNDER
WOOSTER        NOT AVBL
MANSFIELD      MOCLDY    70  64  81 S6        30.09F
YOUNGSTOWN     PTCLDY    73  66  78 S5        30.09S
$$

OHZ042-051>053-060>062-070>072-077>081-310400-
  SOUTHWEST OHIO

CITY           SKY/WX    TMP DP  RH WIND       PRES   REMARKS
CINC-COVINGTON MOCLDY    73  68  84 S5        30.09S
CINC-LUNKEN    PTCLDY    69  68  96 CALM      30.09R
HAMILTON       PTCLDY    68  67  96 CALM      30.09R FOG
DAYTON         NOT AVBL
WRIGHT-PAT AFB PTCLDY    70  65  83 S6        30.08S
DAYTON GENERAL CLEAR     68  64  87 S6        30.08S
WILMINGTON     PTCLDY    68  63  84 S3        30.09F
$$

OHZ036-037-039>041-045>050-054>059-063>069-073>076-082>088-310400-
  CENTRAL AND SOUTHEAST OHIO

CITY           SKY/WX    TMP DP  RH WIND       PRES   REMARKS
COLUMBUS       CLOUDY    76  66  71 CALM      30.08R
OSU AIRPORT    CLEAR     71  64  78 W3        30.09R
BOLTON FIELD   NOT AVBL
RICKENBACK AFB NOT AVBL
NEWARK         MOCLDY    70  67  90 CALM      30.09S
MARION         RAIN      71  68  90 CALM      30.09S FOG
LANCASTER      PTCLDY    72  67  84 CALM      30.10R
ZANESVILLE     PTCLDY    71  66  84 CALM      30.10S
NEW PHILLY     MOCLDY    71  66  84 SE3       30.10S
$$



USA.gov is the U.S. government's official web portal to all federal, state and local government web resources and services.